Kiana, AK

2:35 AM AKST on December 11, 2019 (GMT -0900)
Baker Memorial

Weather History for PAIK - November, 2019

Change the Weather History Date:

Saturday, November 16, 2019

  Actual Average (PASK) Record (PASK)
Temperature  
Mean Temperature 1 °F -  
Max Temperature 9 °F 14 °F 30 °F (1996)
Min Temperature -7 °F 4 °F -23 °F (2015)
Degree Days  
Heating Degree Days 64    
Moisture  
Dew Point -9 °F    
Average Humidity 73    
Maximum Humidity 80    
Minimum Humidity 56    
Precipitation  
Precipitation 0.00 in - - ()
Sea Level Pressure  
Sea Level Pressure 29.84 in    
Wind  
Wind Speed 3 mph ()    
Max Wind Speed 7 mph    
Max Gust Speed -    
Visibility 10.0 miles    
Events      
Averages and records for this station are not official NWS values.
T = Trace of Precipitation, MM = Missing Value Source: Averaged Metar Reports

Daily Weather History Graph

Daily Weather History Graph

Search for Another Location

Airport or City:

Astronomy

Nov. 16, 2019 Rise Set
Actual Time 10:45 AM AKST 4:06 PM AKST
Civil Twilight 9:31 AM AKST 5:20 PM AKST
Nautical Twilight 8:21 AM AKST 6:30 PM AKST
Astronomical Twilight 7:18 AM AKST 7:33 PM AKST
Moon 5:53 PM AKST (11/16) 4:50 PM AKST (11/16)
Length of Visible Light 7h 49m
Length of Day
5h 21m
Waning Gibbous, 81% of the Moon is Illuminated
Nov 16
Waning Gibbous
Nov 19
Last Quarter
Nov 26
New
Dec 3
First Quarter
Dec 11
Full

Hourly Weather History & Observations

Time (AKST) Temp. Windchill Dew Point Humidity Pressure Visibility Wind Dir Wind Speed Gust Speed Precip Events Conditions
12:56 AM 9.0 °F 0.6 °F -4.0 °F 56% 29.90 in 10.0 mi ESE 4.6 mph - N/A   Clear
1:56 AM 3.0 °F -9.3 °F -5.1 °F 69% 29.90 in 10.0 mi ESE 6.9 mph - N/A   Clear
2:56 AM 1.0 °F -8.7 °F -6.0 °F 72% 29.90 in 10.0 mi ESE 4.6 mph - N/A   Clear
3:56 AM -2.0 °F - -9.0 °F 72% 29.90 in 10.0 mi Calm Calm - N/A   Clear
4:56 AM -2.9 °F -11.2 °F -8.0 °F 79% 29.91 in 10.0 mi NW 3.5 mph - N/A   Clear
5:56 AM -0.0 °F -9.9 °F -7.1 °F 72% 29.90 in 10.0 mi NE 4.6 mph - N/A   Clear
6:56 AM -0.9 °F -14.1 °F -8.0 °F 72% 29.89 in 10.0 mi NNE 6.9 mph - N/A   Clear
8:56 AM -4.0 °F -12.4 °F -9.9 °F 76% 29.87 in 10.0 mi ESE 3.5 mph - N/A   Clear
9:56 AM -6.0 °F - -11.9 °F 75% 29.86 in 10.0 mi Calm Calm - N/A   Clear
10:56 AM -6.0 °F -14.7 °F -11.9 °F 75% 29.87 in 10.0 mi North 3.5 mph - N/A   Clear
12:56 PM 1.0 °F - -6.0 °F 72% 29.86 in 10.0 mi Calm Calm - N/A   Clear
1:56 PM 1.9 °F - -7.1 °F 66% 29.84 in 10.0 mi Calm Calm - N/A   Clear
2:56 PM -0.0 °F -7.9 °F -8.0 °F 69% 29.83 in 10.0 mi East 3.5 mph - N/A   Clear
4:56 PM -4.0 °F - -9.9 °F 76% 29.79 in 10.0 mi Calm Calm - N/A   Clear
5:56 PM -4.0 °F - -9.9 °F 76% 29.78 in 10.0 mi Calm Calm - N/A   Clear
6:56 PM -5.1 °F - -9.9 °F 80% 29.78 in 10.0 mi Calm Calm - N/A   Clear
7:56 PM -2.9 °F -13.3 °F -8.0 °F 79% 29.78 in 10.0 mi North 4.6 mph - N/A   Clear
8:56 PM -6.0 °F - -11.0 °F 79% 29.78 in 10.0 mi Calm Calm - N/A   Clear
10:56 PM -7.1 °F -15.9 °F -13.0 °F 75% 29.77 in 10.0 mi NNW 3.5 mph - N/A   Clear
11:56 PM -2.0 °F -10.1 °F -9.0 °F 72% 29.75 in 10.0 mi ENE 3.5 mph - N/A   Clear